Location: Gila Cliff Dwellings National Monument
(33.2240°N, 108.2417°W)
Time: 13:57:58
(UTC-07:00)

Cosmos 2322 Rocket - Visible Passes

Search period start: 27 January 2015 00:00
Search period end: 06 February 2015 00:00
Orbit: 833 x 851 km, 71.0° (Epoch: 27 January)

Date Brightness Start Highest point End Pass type
(mag) Time Alt. Az. Time Alt. Az. Time Alt. Az.
27 Jan 4.0 05:46:09 10° N 05:50:58 29° ENE 05:55:52 10° ESE visible
27 Jan 4.2 18:52:01 10° SE 18:52:02 10° SE 18:52:02 10° SE visible
27 Jan 4.2 20:32:15 10° SSW 20:33:57 20° SSW 20:33:57 20° SSW visible
28 Jan 4.0 05:31:16 10° N 05:36:00 28° ENE 05:40:49 10° ESE visible
28 Jan 4.0 18:37:28 10° ESE 18:38:48 12° ESE 18:38:48 12° ESE visible
28 Jan 3.3 20:17:17 10° SSW 20:20:42 37° SW 20:20:42 37° SW visible
29 Jan 4.1 05:16:24 10° N 05:21:02 26° ENE 05:25:45 10° ESE visible
29 Jan 3.9 18:23:00 10° ESE 18:24:30 11° E 18:25:36 11° E visible
29 Jan 2.4 20:02:20 10° SSW 20:07:31 69° WSW 20:07:31 69° WSW visible
30 Jan 4.2 05:01:32 10° N 05:06:03 25° ENE 05:10:41 10° ESE visible
30 Jan 4.0 18:08:45 10° ESE 18:09:35 10° E 18:10:52 10° E visible
30 Jan 2.2 19:47:22 10° SSW 19:53:04 78° WNW 19:54:21 55° N visible
31 Jan 4.2 04:46:40 10° N 04:51:05 24° ENE 04:55:36 10° ESE visible
31 Jan 2.7 06:30:05 10° NW 06:35:18 39° WSW 06:40:25 10° S visible
31 Jan 2.2 19:32:26 10° SSW 19:38:08 82° WNW 19:41:08 29° NNE visible
01 Feb 4.3 04:31:57 10° N 04:36:06 23° ENE 04:40:31 10° ESE visible
01 Feb 2.6 06:15:06 10° NW 06:20:22 41° WSW 06:25:33 10° S visible
01 Feb 2.2 19:17:29 10° SSW 19:23:11 87° WNW 19:27:53 16° NNE visible
01 Feb 5.0 21:06:48 10° WNW 21:08:12 11° NW 21:09:13 10° NW visible
02 Feb 4.3 04:18:18 15° NNE 04:21:07 21° ENE 04:25:26 10° ESE visible
02 Feb 2.5 06:00:11 10° NW 06:05:26 44° WSW 06:10:41 10° S visible
02 Feb 2.2 19:02:33 10° SSW 19:08:15 89° ESE 19:13:58 10° NNE visible
02 Feb 5.0 20:51:17 10° WNW 20:53:12 11° NW 20:54:45 10° NW visible
03 Feb 4.4 04:04:47 18° NE 04:06:09 20° ENE 04:10:19 10° ESE visible
03 Feb 2.4 05:46:41 19° NW 05:50:30 47° WSW 05:55:49 10° S visible
03 Feb 2.2 18:47:37 10° SSW 18:53:18 84° ESE 18:59:01 10° NNE visible
03 Feb 5.0 20:35:55 10° WNW 20:38:13 12° NW 20:40:09 10° NNW visible
04 Feb 4.4 03:51:24 19° ENE 03:51:24 19° ENE 03:55:13 10° ESE visible
04 Feb 2.3 05:33:18 32° NW 05:35:35 49° WSW 05:40:56 10° S visible
04 Feb 2.2 18:32:41 10° SSW 18:38:22 80° ESE 18:44:05 10° NNE visible
04 Feb 4.9 20:20:36 10° W 20:23:13 13° NW 20:25:30 10° NNW visible
05 Feb 4.7 03:38:07 16° E 03:38:07 16° E 03:40:05 10° E visible
05 Feb 2.2 05:20:02 50° W 05:20:39 53° WSW 05:26:03 10° S visible
05 Feb 2.2 18:17:46 10° SSW 18:23:26 76° ESE 18:29:08 10° NNE visible
05 Feb 4.9 20:05:21 10° W 20:08:13 13° NW 20:10:47 10° NNW visible
